owner,sensor,date,latitude,longitude,vertical_datum,wind_speed,wind_to_direction,wind_speed_of_gust,qcFlag 
LOOP,urn:ioos:station:wmo:lopl1:1,2018-08-01T00:03:00Z,28.8850,-90.0250,10.0,4.2,338.0,6.8,'11111222,11111222,11111222' 
LOOP,urn:ioos:station:wmo:lopl1:1,2018-08-01T01:03:00Z,28.8850,-90.0250,10.0,2.9,358.0,4.1,'11111222,11111222,11111222' 
LOOP,urn:ioos:station:wmo:lopl1:1,2018-08-01T02:03:00Z,28.8850,-90.0250,10.0,1.0,85.0,1.6,'11111222,11111222,11111222' 
LOOP,urn:ioos:station:wmo:lopl1:1,2018-08-01T03:08:00Z,28.8850,-90.0250,10.0,3.1,120.0,3.6,'1111122,1111122,1111122' 
LOOP,urn:ioos:station:wmo:lopl1:1,2018-08-01T04:08:00Z,28.8850,-90.0250,10.0,2.9,63.0,3.9,'11111222,11111222,11111222' 
LOOP,urn:ioos:station:wmo:lopl1:1,2018-08-01T05:08:00Z,28.8850,-90.0250,10.0,2.6,120.0,3.1,'1111122,1111122,1111122' 
LOOP,urn:ioos:station:wmo:lopl1:1,2018-08-01T06:08:00Z,28.8850,-90.0250,10.0,2.1,70.0,2.6,'1111122,1111122,1111122' 
LOOP,urn:ioos:station:wmo:lopl1:1,2018-08-01T07:08:00Z,28.8850,-90.0250,10.0,6.2,80.0,6.2,'1111122,1111122,1111122' 
LOOP,urn:ioos:station:wmo:lopl1:1,2018-08-01T08:08:00Z,28.8850,-90.0250,10.0,3.6,310.0,6.2,'1111122,1111122,1111122' 
LOOP,urn:ioos:station:wmo:lopl1:1,2018-08-01T09:18:00Z,28.8850,-90.0250,10.0,4.1,160.0,4.6,'1111122,1111122,1111122' 
LOOP,urn:ioos:station:wmo:lopl1:1,2018-08-01T10:18:00Z,28.8850,-90.0250,10.0,5.1,140.0,6.2,'1111122,1111122,1111122' 
LOOP,urn:ioos:station:wmo:lopl1:1,2018-08-01T11:18:00Z,28.8850,-90.0250,10.0,7.2,160.0,8.2,'1111122,1111122,1111122' 
LOOP,urn:ioos:station:wmo:lopl1:1,2018-08-01T12:18:00Z,28.8850,-90.0250,10.0,8.2,-9999.0,10.8,'1111122,1111122,1111122' 
LOOP,urn:ioos:station:wmo:lopl1:1,2018-08-01T13:43:00Z,28.8850,-90.0250,10.0,5.1,-9999.0,7.2,'1111122,1111122,1111122' 
LOOP,urn:ioos:station:wmo:lopl1:1,2018-08-01T14:53:00Z,28.8850,-90.0250,10.0,9.8,-9999.0,10.8,'1111122,1111122,1111122' 
LOOP,urn:ioos:station:wmo:lopl1:1,2018-08-01T16:03:00Z,28.8850,-90.0250,10.0,3.6,-9999.0,5.1,'1111122,1111122,1111122' 
LOOP,urn:ioos:station:wmo:lopl1:1,2018-08-01T17:13:00Z,28.8850,-90.0250,10.0,2.6,280.0,3.6,'1111122,1111122,1111122' 
LOOP,urn:ioos:station:wmo:lopl1:1,2018-08-01T18:23:00Z,28.8850,-90.0250,10.0,1.0,290.0,2.1,'1111122,1111122,1111122' 
LOOP,urn:ioos:station:wmo:lopl1:1,2018-08-01T19:33:00Z,28.8850,-90.0250,10.0,1.0,-9999.0,2.1,'1111122,1111122,1111122' 
LOOP,urn:ioos:station:wmo:lopl1:1,2018-08-01T20:48:00Z,28.8850,-90.0250,10.0,2.6,150.0,3.6,'1111122,1111122,1111122' 
LOOP,urn:ioos:station:wmo:lopl1:1,2018-08-01T21:58:00Z,28.8850,-90.0250,10.0,1.5,80.0,2.6,'1111122,1111122,1111122' 
LOOP,urn:ioos:station:wmo:lopl1:1,2018-08-01T23:08:00Z,28.8850,-90.0250,10.0,2.6,-9999.0,4.1,'1111122,1111122,1111122' 
LOOP,urn:ioos:station:wmo:lopl1:1,2018-08-02T00:18:00Z,28.8850,-90.0250,10.0,4.1,160.0,5.1,'1111122,1111122,1111122' 
LOOP,urn:ioos:station:wmo:lopl1:1,2018-08-02T01:28:00Z,28.8850,-90.0250,10.0,4.6,-9999.0,7.2,'1111122,1111122,1111122' 
LOOP,urn:ioos:station:wmo:lopl1:1,2018-08-02T02:38:00Z,28.8850,-90.0250,10.0,4.6,-9999.0,6.7,'1111122,1111122,1111122' 
LOOP,urn:ioos:station:wmo:lopl1:1,2018-08-02T03:48:00Z,28.8850,-90.0250,10.0,7.2,170.0,9.3,'1111122,1111122,1111122' 
LOOP,urn:ioos:station:wmo:lopl1:1,2018-08-02T04:58:00Z,28.8850,-90.0250,10.0,6.7,-9999.0,9.3,'1111122,1111122,1111122' 
LOOP,urn:ioos:station:wmo:lopl1:1,2018-08-02T06:18:00Z,28.8850,-90.0250,10.0,5.1,170.0,6.7,'1111122,1111122,1111122' 
LOOP,urn:ioos:station:wmo:lopl1:1,2018-08-02T07:28:00Z,28.8850,-90.0250,10.0,3.6,-9999.0,4.6,'1111122,1111122,1111122' 
LOOP,urn:ioos:station:wmo:lopl1:1,2018-08-02T08:43:00Z,28.8850,-90.0250,10.0,4.6,-9999.0,6.2,'1111122,1111122,1111122' 
LOOP,urn:ioos:station:wmo:lopl1:1,2018-08-02T09:53:00Z,28.8850,-90.0250,10.0,4.1,-9999.0,5.1,'1111122,1111122,1111122' 
LOOP,urn:ioos:station:wmo:lopl1:1,2018-08-02T11:03:00Z,28.8850,-90.0250,10.0,4.1,-9999.0,5.7,'1111122,1111122,1111122' 
LOOP,urn:ioos:station:wmo:lopl1:1,2018-08-02T12:13:00Z,28.8850,-90.0250,10.0,2.6,-9999.0,3.6,'1111122,1111122,1111122' 
LOOP,urn:ioos:station:wmo:lopl1:1,2018-08-02T13:23:00Z,28.8850,-90.0250,10.0,2.6,340.0,4.1,'1111122,1111122,1111122' 
LOOP,urn:ioos:station:wmo:lopl1:1,2018-08-02T14:33:00Z,28.8850,-90.0250,10.0,2.6,10.0,3.1,'1111122,1111122,1111122' 
LOOP,urn:ioos:station:wmo:lopl1:1,2018-08-02T15:43:00Z,28.8850,-90.0250,10.0,3.1,20.0,3.6,'1111122,1111122,1111122' 
LOOP,urn:ioos:station:wmo:lopl1:1,2018-08-02T16:53:00Z,28.8850,-90.0250,10.0,3.1,40.0,3.6,'1111122,1111122,1111122' 
LOOP,urn:ioos:station:wmo:lopl1:1,2018-08-02T17:53:00Z,28.8850,-90.0250,10.0,3.6,40.0,5.1,'1111122,1111122,1111122' 
LOOP,urn:ioos:station:wmo:lopl1:1,2018-08-02T19:13:00Z,28.8850,-90.0250,10.0,4.1,40.0,5.1,'1111122,1111122,1111122' 
LOOP,urn:ioos:station:wmo:lopl1:1,2018-08-02T21:03:00Z,28.8850,-90.0250,10.0,4.6,110.0,5.1,'1111122,1111122,1111122' 
LOOP,urn:ioos:station:wmo:lopl1:1,2018-08-02T22:13:00Z,28.8850,-90.0250,10.0,6.2,110.0,7.2,'1111122,1111122,1111122' 
LOOP,urn:ioos:station:wmo:lopl1:1,2018-08-02T23:23:00Z,28.8850,-90.0250,10.0,6.2,130.0,6.7,'1111122,1111122,1111122' 
LOOP,urn:ioos:station:wmo:lopl1:1,2018-08-03T00:33:00Z,28.8850,-90.0250,10.0,6.2,160.0,7.2,'1111122,1111122,1111122' 
LOOP,urn:ioos:station:wmo:lopl1:1,2018-08-03T01:43:00Z,28.8850,-90.0250,10.0,4.1,170.0,6.7,'1111122,1111122,1111122' 
LOOP,urn:ioos:station:wmo:lopl1:1,2018-08-03T02:53:00Z,28.8850,-90.0250,10.0,4.6,-9999.0,6.2,'1111122,1111122,1111122' 
LOOP,urn:ioos:station:wmo:lopl1:1,2018-08-03T04:03:00Z,28.8850,-90.0250,10.0,6.2,-9999.0,8.8,'1111122,1111122,1111122' 
LOOP,urn:ioos:station:wmo:lopl1:1,2018-08-03T05:13:00Z,28.8850,-90.0250,10.0,6.2,-9999.0,7.7,'1111122,1111122,1111122' 
LOOP,urn:ioos:station:wmo:lopl1:1,2018-08-03T06:23:00Z,28.8850,-90.0250,10.0,6.7,-9999.0,8.2,'1111122,1111122,1111122' 
LOOP,urn:ioos:station:wmo:lopl1:1,2018-08-03T07:38:00Z,28.8850,-90.0250,10.0,3.6,300.0,5.1,'1111122,1111122,1111122' 
LOOP,urn:ioos:station:wmo:lopl1:1,2018-08-03T08:48:00Z,28.8850,-90.0250,10.0,2.6,280.0,4.1,'1111122,1111122,1111122' 
LOOP,urn:ioos:station:wmo:lopl1:1,2018-08-03T10:13:00Z,28.8850,-90.0250,10.0,1.5,330.0,2.6,'1111122,1111122,1111122' 
LOOP,urn:ioos:station:wmo:lopl1:1,2018-08-03T11:23:00Z,28.8850,-90.0250,10.0,1.5,360.0,2.6,'1111122,1111122,1111122' 
LOOP,urn:ioos:station:wmo:lopl1:1,2018-08-03T12:33:00Z,28.8850,-90.0250,10.0,3.1,30.0,4.1,'1111122,1111122,1111122' 
LOOP,urn:ioos:station:wmo:lopl1:1,2018-08-03T13:43:00Z,28.8850,-90.0250,10.0,4.1,130.0,5.7,'1111122,1111122,1111122' 
LOOP,urn:ioos:station:wmo:lopl1:1,2018-08-03T14:53:00Z,28.8850,-90.0250,10.0,4.1,150.0,5.7,'1111122,1111122,1111122' 
LOOP,urn:ioos:station:wmo:lopl1:1,2018-08-03T16:03:00Z,28.8850,-90.0250,10.0,5.1,160.0,6.7,'1111122,1111122,1111122' 
LOOP,urn:ioos:station:wmo:lopl1:1,2018-08-03T17:13:00Z,28.8850,-90.0250,10.0,6.7,150.0,8.2,'1111122,1111122,1111122' 
LOOP,urn:ioos:station:wmo:lopl1:1,2018-08-03T18:13:00Z,28.8850,-90.0250,10.0,5.8,-9999.0,8.0,'11111222,99999999,11111222' 
LOOP,urn:ioos:station:wmo:lopl1:1,2018-08-03T18:23:00Z,28.8850,-90.0250,10.0,5.7,-9999.0,7.7,'1111122,1111122,1111122' 
LOOP,urn:ioos:station:wmo:lopl1:1,2018-08-03T19:23:00Z,28.8850,-90.0250,10.0,6.7,170.0,7.7,'1111122,1111122,1111122' 
LOOP,urn:ioos:station:wmo:lopl1:1,2018-08-03T20:38:00Z,28.8850,-90.0250,10.0,4.6,160.0,7.7,'1111122,1111122,1111122' 
LOOP,urn:ioos:station:wmo:lopl1:1,2018-08-03T21:48:00Z,28.8850,-90.0250,10.0,5.7,-9999.0,8.2,'1111122,1111122,1111122' 
LOOP,urn:ioos:station:wmo:lopl1:1,2018-08-03T22:58:00Z,28.8850,-90.0250,10.0,6.2,-9999.0,9.3,'1111122,1111122,1111122' 
LOOP,urn:ioos:station:wmo:lopl1:1,2018-08-04T00:08:00Z,28.8850,-90.0250,10.0,6.7,-9999.0,9.8,'1111122,1111122,1111122' 
LOOP,urn:ioos:station:wmo:lopl1:1,2018-08-04T01:18:00Z,28.8850,-90.0250,10.0,7.7,-9999.0,9.8,'1111122,1111122,1111122' 
LOOP,urn:ioos:station:wmo:lopl1:1,2018-08-04T02:18:00Z,28.8850,-90.0250,10.0,5.2,-9999.0,6.7,'11111222,99999999,11111222' 
LOOP,urn:ioos:station:wmo:lopl1:1,2018-08-04T02:38:00Z,28.8850,-90.0250,10.0,5.1,-9999.0,6.2,'1111122,1111122,1111122' 
LOOP,urn:ioos:station:wmo:lopl1:1,2018-08-04T03:48:00Z,28.8850,-90.0250,10.0,3.6,-9999.0,4.6,'1111122,1111122,1111122' 
LOOP,urn:ioos:station:wmo:lopl1:1,2018-08-04T04:58:00Z,28.8850,-90.0250,10.0,3.6,-9999.0,4.6,'1111122,1111122,1111122' 
LOOP,urn:ioos:station:wmo:lopl1:1,2018-08-04T06:08:00Z,28.8850,-90.0250,10.0,3.1,-9999.0,4.6,'1111122,1111122,1111122' 
LOOP,urn:ioos:station:wmo:lopl1:1,2018-08-04T07:18:00Z,28.8850,-90.0250,10.0,3.1,-9999.0,4.6,'1111122,1111122,1111122' 
LOOP,urn:ioos:station:wmo:lopl1:1,2018-08-04T08:33:00Z,28.8850,-90.0250,10.0,4.6,160.0,6.2,'1111122,1111122,1111122' 
LOOP,urn:ioos:station:wmo:lopl1:1,2018-08-04T09:43:00Z,28.8850,-90.0250,10.0,5.7,-9999.0,6.7,'1111122,1111122,1111122' 
LOOP,urn:ioos:station:wmo:lopl1:1,2018-08-04T10:53:00Z,28.8850,-90.0250,10.0,7.2,160.0,8.2,'1111122,1111122,1111122' 
LOOP,urn:ioos:station:wmo:lopl1:1,2018-08-04T11:53:00Z,28.8850,-90.0250,10.0,8.1,149.0,8.9,'11111222,11111222,11111222' 
LOOP,urn:ioos:station:wmo:lopl1:1,2018-08-04T12:03:00Z,28.8850,-90.0250,10.0,8.2,150.0,9.3,'1111122,1111122,1111122' 
LOOP,urn:ioos:station:wmo:lopl1:1,2018-08-04T13:13:00Z,28.8850,-90.0250,10.0,6.2,160.0,7.2,'1111122,1111122,1111122' 
LOOP,urn:ioos:station:wmo:lopl1:1,2018-08-04T14:23:00Z,28.8850,-90.0250,10.0,6.2,150.0,7.2,'1111122,1111122,1111122' 
LOOP,urn:ioos:station:wmo:lopl1:1,2018-08-04T15:23:00Z,28.8850,-90.0250,10.0,5.7,150.0,6.7,'1111122,1111122,1111122' 
LOOP,urn:ioos:station:wmo:lopl1:1,2018-08-04T16:33:00Z,28.8850,-90.0250,10.0,5.1,150.0,6.2,'1111122,1111122,1111122' 
LOOP,urn:ioos:station:wmo:lopl1:1,2018-08-04T17:43:00Z,28.8850,-90.0250,10.0,5.7,150.0,6.7,'1111122,1111122,1111122' 
LOOP,urn:ioos:station:wmo:lopl1:1,2018-08-04T19:08:00Z,28.8850,-90.0250,10.0,3.6,110.0,4.6,'1111122,1111122,1111122' 
LOOP,urn:ioos:station:wmo:lopl1:1,2018-08-04T20:18:00Z,28.8850,-90.0250,10.0,4.6,10.0,6.2,'1111122,1111122,1111122' 
LOOP,urn:ioos:station:wmo:lopl1:1,2018-08-04T21:18:00Z,28.8850,-90.0250,10.0,4.1,102.0,4.9,'11111222,11111222,11111222' 
LOOP,urn:ioos:station:wmo:lopl1:1,2018-08-04T21:28:00Z,28.8850,-90.0250,10.0,5.1,130.0,6.7,'1111122,1111122,1111122' 
LOOP,urn:ioos:station:wmo:lopl1:1,2018-08-04T22:43:00Z,28.8850,-90.0250,10.0,6.2,140.0,7.2,'1111122,1111122,1111122' 
LOOP,urn:ioos:station:wmo:lopl1:1,2018-08-04T23:53:00Z,28.8850,-90.0250,10.0,5.7,140.0,6.7,'1111122,1111122,1111122' 
LOOP,urn:ioos:station:wmo:lopl1:1,2018-08-05T01:03:00Z,28.8850,-90.0250,10.0,6.2,120.0,7.2,'1111122,1111122,1111122' 
LOOP,urn:ioos:station:wmo:lopl1:1,2018-08-05T02:03:00Z,28.8850,-90.0250,10.0,5.1,110.0,6.2,'1111122,1111122,1111122' 
LOOP,urn:ioos:station:wmo:lopl1:1,2018-08-05T03:13:00Z,28.8850,-90.0250,10.0,7.2,130.0,8.2,'1111122,1111122,1111122' 
LOOP,urn:ioos:station:wmo:lopl1:1,2018-08-05T04:23:00Z,28.8850,-90.0250,10.0,6.7,150.0,7.7,'1111122,1111122,1111122' 
LOOP,urn:ioos:station:wmo:lopl1:1,2018-08-05T05:33:00Z,28.8850,-90.0250,10.0,6.2,140.0,7.2,'1111122,1111122,1111122' 
LOOP,urn:ioos:station:wmo:lopl1:1,2018-08-05T06:43:00Z,28.8850,-90.0250,10.0,5.7,150.0,6.2,'1111122,1111122,1111122' 
LOOP,urn:ioos:station:wmo:lopl1:1,2018-08-05T07:53:00Z,28.8850,-90.0250,10.0,4.6,130.0,5.1,'1111122,1111122,1111122' 
LOOP,urn:ioos:station:wmo:lopl1:1,2018-08-05T09:03:00Z,28.8850,-90.0250,10.0,3.6,110.0,4.6,'1111122,1111122,1111122' 
LOOP,urn:ioos:station:wmo:lopl1:1,2018-08-05T10:13:00Z,28.8850,-90.0250,10.0,4.6,100.0,5.7,'1111122,1111122,1111122' 
LOOP,urn:ioos:station:wmo:lopl1:1,2018-08-05T11:23:00Z,28.8850,-90.0250,10.0,5.1,70.0,6.2,'1111122,1111122,1111122' 
LOOP,urn:ioos:station:wmo:lopl1:1,2018-08-05T12:38:00Z,28.8850,-90.0250,10.0,8.8,110.0,14.9,'1111122,1111122,1111122' 
LOOP,urn:ioos:station:wmo:lopl1:1,2018-08-05T13:48:00Z,28.8850,-90.0250,10.0,6.7,90.0,7.7,'1111122,1111122,1111122' 
LOOP,urn:ioos:station:wmo:lopl1:1,2018-08-05T14:58:00Z,28.8850,-90.0250,10.0,6.7,80.0,7.7,'1111122,1111122,1111122' 
LOOP,urn:ioos:station:wmo:lopl1:1,2018-08-05T16:08:00Z,28.8850,-90.0250,10.0,8.2,120.0,9.3,'1111122,1111122,1111122' 
LOOP,urn:ioos:station:wmo:lopl1:1,2018-08-05T17:08:00Z,28.8850,-90.0250,10.0,8.1,134.0,9.1,'11111222,11111222,11111222' 
LOOP,urn:ioos:station:wmo:lopl1:1,2018-08-05T17:18:00Z,28.8850,-90.0250,10.0,8.2,150.0,9.3,'1111122,1111122,1111122' 
LOOP,urn:ioos:station:wmo:lopl1:1,2018-08-05T18:28:00Z,28.8850,-90.0250,10.0,7.7,150.0,8.8,'1111122,1111122,1111122' 
LOOP,urn:ioos:station:wmo:lopl1:1,2018-08-05T19:38:00Z,28.8850,-90.0250,10.0,6.7,130.0,7.7,'1111122,1111122,1111122' 
LOOP,urn:ioos:station:wmo:lopl1:1,2018-08-05T20:48:00Z,28.8850,-90.0250,10.0,8.8,140.0,9.8,'1111122,1111122,1111122' 
LOOP,urn:ioos:station:wmo:lopl1:1,2018-08-05T21:58:00Z,28.8850,-90.0250,10.0,6.7,130.0,7.2,'1111122,1111122,1111122' 
LOOP,urn:ioos:station:wmo:lopl1:1,2018-08-05T23:08:00Z,28.8850,-90.0250,10.0,5.7,130.0,6.2,'1111122,1111122,1111122' 
LOOP,urn:ioos:station:wmo:lopl1:1,2018-08-06T00:23:00Z,28.8850,-90.0250,10.0,5.1,120.0,6.2,'1111122,1111122,1111122' 
LOOP,urn:ioos:station:wmo:lopl1:1,2018-08-06T01:38:00Z,28.8850,-90.0250,10.0,4.2,131.0,4.8,'11111222,11111222,11111222' 
LOOP,urn:ioos:station:wmo:lopl1:1,2018-08-06T01:48:00Z,28.8850,-90.0250,10.0,4.1,120.0,4.6,'1111122,1111122,1111122' 
LOOP,urn:ioos:station:wmo:lopl1:1,2018-08-06T02:58:00Z,28.8850,-90.0250,10.0,4.6,150.0,5.7,'1111122,1111122,1111122' 
LOOP,urn:ioos:station:wmo:lopl1:1,2018-08-06T03:58:00Z,28.8850,-90.0250,10.0,5.7,160.0,6.7,'1111122,1111122,1111122' 
LOOP,urn:ioos:station:wmo:lopl1:1,2018-08-06T05:08:00Z,28.8850,-90.0250,10.0,5.7,140.0,6.7,'1111122,1111122,1111122' 
LOOP,urn:ioos:station:wmo:lopl1:1,2018-08-06T06:18:00Z,28.8850,-90.0250,10.0,5.1,150.0,6.2,'1111122,1111122,1111122' 
LOOP,urn:ioos:station:wmo:lopl1:1,2018-08-06T07:28:00Z,28.8850,-90.0250,10.0,4.6,140.0,5.1,'1111122,1111122,1111122' 
LOOP,urn:ioos:station:wmo:lopl1:1,2018-08-06T08:38:00Z,28.8850,-90.0250,10.0,3.6,160.0,4.1,'1111122,1111122,1111122' 
LOOP,urn:ioos:station:wmo:lopl1:1,2018-08-06T09:48:00Z,28.8850,-90.0250,10.0,2.6,150.0,3.1,'1111122,1111122,1111122' 
LOOP,urn:ioos:station:wmo:lopl1:1,2018-08-06T10:58:00Z,28.8850,-90.0250,10.0,4.1,140.0,4.6,'1111122,1111122,1111122' 
LOOP,urn:ioos:station:wmo:lopl1:1,2018-08-06T12:08:00Z,28.8850,-90.0250,10.0,4.1,130.0,4.6,'1111122,1111122,1111122' 
LOOP,urn:ioos:station:wmo:lopl1:1,2018-08-06T13:23:00Z,28.8850,-90.0250,10.0,4.6,130.0,6.2,'1111122,1111122,1111122' 
LOOP,urn:ioos:station:wmo:lopl1:1,2018-08-06T14:33:00Z,28.8850,-90.0250,10.0,5.0,135.0,5.6,'11111222,11111222,11111222' 
LOOP,urn:ioos:station:wmo:lopl1:1,2018-08-06T15:43:00Z,28.8850,-90.0250,10.0,5.7,160.0,6.2,'1111122,1111122,1111122' 
LOOP,urn:ioos:station:wmo:lopl1:1,2018-08-06T16:53:00Z,28.8850,-90.0250,10.0,5.2,149.0,6.4,'11111222,11111222,11111222' 
LOOP,urn:ioos:station:wmo:lopl1:1,2018-08-06T17:08:00Z,28.8850,-90.0250,10.0,5.1,150.0,6.2,'1111122,1111122,1111122' 
LOOP,urn:ioos:station:wmo:lopl1:1,2018-08-06T18:18:00Z,28.8850,-90.0250,10.0,4.1,140.0,4.6,'1111122,1111122,1111122' 
LOOP,urn:ioos:station:wmo:lopl1:1,2018-08-06T19:18:00Z,28.8850,-90.0250,10.0,3.6,140.0,4.6,'1111122,1111122,1111122' 
LOOP,urn:ioos:station:wmo:lopl1:1,2018-08-06T20:28:00Z,28.8850,-90.0250,10.0,4.6,140.0,5.7,'1111122,1111122,1111122' 
LOOP,urn:ioos:station:wmo:lopl1:1,2018-08-06T21:38:00Z,28.8850,-90.0250,10.0,4.1,150.0,5.1,'1111122,1111122,1111122' 
LOOP,urn:ioos:station:wmo:lopl1:1,2018-08-06T22:38:00Z,28.8850,-90.0250,10.0,5.8,151.0,6.6,'11111222,11111222,11111222' 
LOOP,urn:ioos:station:wmo:lopl1:1,2018-08-06T22:48:00Z,28.8850,-90.0250,10.0,5.7,150.0,6.7,'1111122,1111122,1111122' 
LOOP,urn:ioos:station:wmo:lopl1:1,2018-08-07T00:43:00Z,28.8850,-90.0250,10.0,2.1,130.0,2.6,'1111122,1111122,1111122' 
LOOP,urn:ioos:station:wmo:lopl1:1,2018-08-07T01:53:00Z,28.8850,-90.0250,10.0,3.1,135.0,3.7,'11111222,11111222,11111222' 
LOOP,urn:ioos:station:wmo:lopl1:1,2018-08-07T02:08:00Z,28.8850,-90.0250,10.0,3.6,120.0,3.6,'1111122,1111122,1111122' 
LOOP,urn:ioos:station:wmo:lopl1:1,2018-08-07T03:18:00Z,28.8850,-90.0250,10.0,3.6,100.0,4.1,'1111122,1111122,1111122' 
LOOP,urn:ioos:station:wmo:lopl1:1,2018-08-07T04:28:00Z,28.8850,-90.0250,10.0,4.1,120.0,4.6,'1111122,1111122,1111122' 
LOOP,urn:ioos:station:wmo:lopl1:1,2018-08-07T05:48:00Z,28.8850,-90.0250,10.0,4.6,140.0,5.1,'1111122,1111122,1111122' 
LOOP,urn:ioos:station:wmo:lopl1:1,2018-08-07T06:58:00Z,28.8850,-90.0250,10.0,4.1,140.0,5.1,'1111122,1111122,1111122' 
LOOP,urn:ioos:station:wmo:lopl1:1,2018-08-07T07:58:00Z,28.8850,-90.0250,10.0,4.8,136.0,5.7,'11111222,11111222,11111222' 
LOOP,urn:ioos:station:wmo:lopl1:1,2018-08-07T08:13:00Z,28.8850,-90.0250,10.0,4.6,140.0,5.7,'1111122,1111122,1111122' 
LOOP,urn:ioos:station:wmo:lopl1:1,2018-08-07T09:23:00Z,28.8850,-90.0250,10.0,4.1,150.0,5.1,'1111122,1111122,1111122' 
LOOP,urn:ioos:station:wmo:lopl1:1,2018-08-07T10:33:00Z,28.8850,-90.0250,10.0,4.1,170.0,5.1,'1111122,1111122,1111122' 
LOOP,urn:ioos:station:wmo:lopl1:1,2018-08-07T11:43:00Z,28.8850,-90.0250,10.0,2.6,-9999.0,3.6,'1111122,1111122,1111122' 
LOOP,urn:ioos:station:wmo:lopl1:1,2018-08-07T12:53:00Z,28.8850,-90.0250,10.0,2.1,-9999.0,3.1,'1111122,1111122,1111122' 
LOOP,urn:ioos:station:wmo:lopl1:1,2018-08-07T14:03:00Z,28.8850,-90.0250,10.0,1.5,-9999.0,2.1,'1111122,1111122,1111122' 
LOOP,urn:ioos:station:wmo:lopl1:1,2018-08-07T15:03:00Z,28.8850,-90.0250,10.0,1.3,41.0,1.7,'11111222,11111222,11111222' 
LOOP,urn:ioos:station:wmo:lopl1:1,2018-08-07T15:13:00Z,28.8850,-90.0250,10.0,1.5,60.0,2.6,'1111122,1111122,1111122' 
LOOP,urn:ioos:station:wmo:lopl1:1,2018-08-07T16:23:00Z,28.8850,-90.0250,10.0,3.0,75.0,3.9,'11111222,11111222,11111222' 
LOOP,urn:ioos:station:wmo:lopl1:1,2018-08-07T16:38:00Z,28.8850,-90.0250,10.0,2.6,40.0,3.6,'1111122,1111122,1111122' 
LOOP,urn:ioos:station:wmo:lopl1:1,2018-08-07T17:48:00Z,28.8850,-90.0250,10.0,3.6,70.0,4.1,'1111122,1111122,1111122' 
LOOP,urn:ioos:station:wmo:lopl1:1,2018-08-07T18:48:00Z,28.8850,-90.0250,10.0,3.2,79.0,3.9,'11111222,11111222,11111222' 
LOOP,urn:ioos:station:wmo:lopl1:1,2018-08-07T18:58:00Z,28.8850,-90.0250,10.0,2.6,80.0,3.1,'1111122,1111122,1111122' 
LOOP,urn:ioos:station:wmo:lopl1:1,2018-08-07T19:58:00Z,28.8850,-90.0250,10.0,4.1,87.0,4.8,'11111222,11111222,11111222' 
LOOP,urn:ioos:station:wmo:lopl1:1,2018-08-07T20:08:00Z,28.8850,-90.0250,10.0,4.6,90.0,5.7,'1111122,1111122,1111122' 
LOOP,urn:ioos:station:wmo:lopl1:1,2018-08-07T21:23:00Z,28.8850,-90.0250,10.0,4.1,130.0,4.6,'1111122,1111122,1111122' 
LOOP,urn:ioos:station:wmo:lopl1:1,2018-08-07T22:33:00Z,28.8850,-90.0250,10.0,2.6,160.0,3.6,'1111122,1111122,1111122' 
LOOP,urn:ioos:station:wmo:lopl1:1,2018-08-07T23:43:00Z,28.8850,-90.0250,10.0,3.6,150.0,4.6,'1111122,1111122,1111122' 
LOOP,urn:ioos:station:wmo:lopl1:1,2018-08-08T00:53:00Z,28.8850,-90.0250,10.0,2.1,110.0,2.6,'1111122,1111122,1111122' 
LOOP,urn:ioos:station:wmo:lopl1:1,2018-08-08T01:53:00Z,28.8850,-90.0250,10.0,2.4,106.0,3.2,'11111222,11111222,11111222' 
LOOP,urn:ioos:station:wmo:lopl1:1,2018-08-08T02:03:00Z,28.8850,-90.0250,10.0,2.6,110.0,3.1,'1111122,1111122,1111122' 
LOOP,urn:ioos:station:wmo:lopl1:1,2018-08-08T03:13:00Z,28.8850,-90.0250,10.0,4.1,130.0,4.6,'1111122,1111122,1111122' 
LOOP,urn:ioos:station:wmo:lopl1:1,2018-08-08T04:23:00Z,28.8850,-90.0250,10.0,6.2,140.0,7.2,'1111122,1111122,1111122' 
LOOP,urn:ioos:station:wmo:lopl1:1,2018-08-08T06:03:00Z,28.8850,-90.0250,10.0,7.7,150.0,8.8,'1111122,1111122,1111122' 
LOOP,urn:ioos:station:wmo:lopl1:1,2018-08-08T07:13:00Z,28.8850,-90.0250,10.0,7.7,160.0,8.8,'1111122,1111122,1111122' 
LOOP,urn:ioos:station:wmo:lopl1:1,2018-08-08T08:28:00Z,28.8850,-90.0250,10.0,6.2,170.0,7.7,'1111122,1111122,1111122' 
LOOP,urn:ioos:station:wmo:lopl1:1,2018-08-08T09:38:00Z,28.8850,-90.0250,10.0,3.6,-9999.0,5.1,'1111122,1111122,1111122' 
LOOP,urn:ioos:station:wmo:lopl1:1,2018-08-08T11:23:00Z,28.8850,-90.0250,10.0,3.1,-9999.0,4.1,'1111122,1111122,1111122' 
LOOP,urn:ioos:station:wmo:lopl1:1,2018-08-08T12:33:00Z,28.8850,-90.0250,10.0,2.1,-9999.0,3.6,'1111122,1111122,1111122' 
LOOP,urn:ioos:station:wmo:lopl1:1,2018-08-08T13:53:00Z,28.8850,-90.0250,10.0,2.1,160.0,2.6,'1111122,1111122,1111122' 
LOOP,urn:ioos:station:wmo:lopl1:1,2018-08-08T15:03:00Z,28.8850,-90.0250,10.0,2.1,160.0,2.6,'1111122,1111122,1111122' 
LOOP,urn:ioos:station:wmo:lopl1:1,2018-08-08T16:13:00Z,28.8850,-90.0250,10.0,1.5,160.0,2.1,'1111122,1111122,1111122' 
LOOP,urn:ioos:station:wmo:lopl1:1,2018-08-08T17:23:00Z,28.8850,-90.0250,10.0,2.6,160.0,3.6,'1111122,1111122,1111122' 
LOOP,urn:ioos:station:wmo:lopl1:1,2018-08-08T18:23:00Z,28.8850,-90.0250,10.0,3.3,171.0,4.2,'11111222,11111222,11111222' 
LOOP,urn:ioos:station:wmo:lopl1:1,2018-08-08T18:38:00Z,28.8850,-90.0250,10.0,2.1,170.0,4.1,'1111122,1111122,1111122' 
LOOP,urn:ioos:station:wmo:lopl1:1,2018-08-08T19:48:00Z,28.8850,-90.0250,10.0,2.6,170.0,4.1,'1111122,1111122,1111122' 
LOOP,urn:ioos:station:wmo:lopl1:1,2018-08-08T20:58:00Z,28.8850,-90.0250,10.0,2.6,-9999.0,3.1,'1111122,1111122,1111122' 
LOOP,urn:ioos:station:wmo:lopl1:1,2018-08-08T21:58:00Z,28.8850,-90.0250,10.0,2.1,-9999.0,3.1,'1111122,1111122,1111122' 
LOOP,urn:ioos:station:wmo:lopl1:1,2018-08-08T22:58:00Z,28.8850,-90.0250,10.0,2.6,-9999.0,3.8,'11111222,99999999,11111222' 
LOOP,urn:ioos:station:wmo:lopl1:1,2018-08-08T23:08:00Z,28.8850,-90.0250,10.0,2.6,-9999.0,3.1,'1111122,1111122,1111122' 
LOOP,urn:ioos:station:wmo:lopl1:1,2018-08-09T00:18:00Z,28.8850,-90.0250,10.0,2.6,-9999.0,3.1,'1111122,1111122,1111122' 
LOOP,urn:ioos:station:wmo:lopl1:1,2018-08-09T01:28:00Z,28.8850,-90.0250,10.0,2.6,-9999.0,3.6,'1111122,1111122,1111122' 
LOOP,urn:ioos:station:wmo:lopl1:1,2018-08-09T02:38:00Z,28.8850,-90.0250,10.0,3.1,-9999.0,4.6,'1111122,1111122,1111122' 
LOOP,urn:ioos:station:wmo:lopl1:1,2018-08-09T03:48:00Z,28.8850,-90.0250,10.0,2.6,-9999.0,3.6,'1111122,1111122,1111122' 
LOOP,urn:ioos:station:wmo:lopl1:1,2018-08-09T04:58:00Z,28.8850,-90.0250,10.0,2.6,-9999.0,4.1,'1111122,1111122,1111122' 
LOOP,urn:ioos:station:wmo:lopl1:1,2018-08-09T06:08:00Z,28.8850,-90.0250,10.0,4.1,-9999.0,5.7,'1111122,1111122,1111122' 
LOOP,urn:ioos:station:wmo:lopl1:1,2018-08-09T07:23:00Z,28.8850,-90.0250,10.0,4.1,-9999.0,5.1,'1111122,1111122,1111122' 
LOOP,urn:ioos:station:wmo:lopl1:1,2018-08-09T08:33:00Z,28.8850,-90.0250,10.0,3.1,-9999.0,4.6,'1111122,1111122,1111122' 
LOOP,urn:ioos:station:wmo:lopl1:1,2018-08-09T09:43:00Z,28.8850,-90.0250,10.0,4.1,-9999.0,6.2,'1111122,1111122,1111122' 
LOOP,urn:ioos:station:wmo:lopl1:1,2018-08-09T10:53:00Z,28.8850,-90.0250,10.0,5.7,-9999.0,7.2,'1111122,1111122,1111122' 
LOOP,urn:ioos:station:wmo:lopl1:1,2018-08-09T12:03:00Z,28.8850,-90.0250,10.0,5.7,-9999.0,6.7,'1111122,1111122,1111122' 
LOOP,urn:ioos:station:wmo:lopl1:1,2018-08-09T13:13:00Z,28.8850,-90.0250,10.0,5.1,-9999.0,5.7,'1111122,1111122,1111122' 
LOOP,urn:ioos:station:wmo:lopl1:1,2018-08-09T14:38:00Z,28.8850,-90.0250,10.0,5.1,-9999.0,5.7,'1111122,1111122,1111122' 
LOOP,urn:ioos:station:wmo:lopl1:1,2018-08-09T15:48:00Z,28.8850,-90.0250,10.0,6.2,-9999.0,7.7,'1111122,1111122,1111122' 
LOOP,urn:ioos:station:wmo:lopl1:1,2018-08-09T16:58:00Z,28.8850,-90.0250,10.0,3.6,270.0,5.7,'1111122,1111122,1111122' 
LOOP,urn:ioos:station:wmo:lopl1:1,2018-08-09T18:08:00Z,28.8850,-90.0250,10.0,3.1,-9999.0,4.6,'1111122,1111122,1111122' 
LOOP,urn:ioos:station:wmo:lopl1:1,2018-08-09T19:38:00Z,28.8850,-90.0250,10.0,4.6,-9999.0,5.7,'1111122,1111122,1111122' 
LOOP,urn:ioos:station:wmo:lopl1:1,2018-08-09T20:48:00Z,28.8850,-90.0250,10.0,4.1,-9999.0,6.2,'1111122,1111122,1111122' 
LOOP,urn:ioos:station:wmo:lopl1:1,2018-08-09T21:58:00Z,28.8850,-90.0250,10.0,3.4,-9999.0,6.0,'11111222,99999999,11111222' 
LOOP,urn:ioos:station:wmo:lopl1:1,2018-08-09T23:08:00Z,28.8850,-90.0250,10.0,2.6,-9999.0,4.1,'1111122,1111122,1111122' 
LOOP,urn:ioos:station:wmo:lopl1:1,2018-08-10T00:18:00Z,28.8850,-90.0250,10.0,4.1,-9999.0,6.2,'1111122,1111122,1111122' 
LOOP,urn:ioos:station:wmo:lopl1:1,2018-08-10T01:28:00Z,28.8850,-90.0250,10.0,4.6,-9999.0,7.2,'1111122,1111122,1111122' 